Torna al catalogo

SL-14 DEB

AttivoPO
NORAD 45326·DEBRIS·🇷🇺 Russia

Lanciato Aug 15, 1991 da Plesetsk Cosmodrome

Loading…

Prossimi Passaggi (prossime 24 ore)

TLE

AggiornatoSource: Space-Track

Epoca: Sep 13, 2026, 21:21 UTC

1 45326U 91056BQ  26256.89013909  .00000505  00000-0  11277-2 0  9991
2 45326  82.5870  65.8216 0036426 161.7360 198.5085 13.25232709317949

Traccia SL-14 DEB in tempo reale con AllMySat

Download on the App Store